Other Public Products
Issued by NWS Grand Forks, ND

Home | Current Version | Previous Version | Text Only | Print | Product List | Glossary Off
Versions: 1 2 3 4 5 6 7 8 9 10 11 12 13 14 15 16 17 18 19 20 21 22 23 24 25 26 27 28 29 30 31 32 33 34 35 36 37 38 39 40 41 42 43 44 45 46 47 48 49 50

000
FPUS83 KFGF 301731
OPUFGF
PRAIRIE TO PINES WEATHER ROUNDUP
NATIONAL WEATHER SERVICE EASTERN NORTH DAKOTA/GRAND FORKS ND
1200 PM CDT SUN AUG 30 2015

 **SATELLITE DATA USED TO AUGMENT SKY COVER AT AUTOMATED STATIONS**
 *****  WEATHER ACROSS EASTERN NORTH DAKOTA  *****

CITY           SKY/WX    TMP DP  RH WIND       PRES   REMARKS
GRAND FORKS    MOSUNNY   76  66  71 S15       29.75F
GRAND FORKS AF MOSUNNY   77  67  69 S13       29.75F
GRAND CITY NWS   N/A     73 N/A N/A S13         N/A
BUXTON         NOT AVBL
DEVILS LAKE    MOSUNNY   81  64  57 SE16      29.70F
FARGO          SUNNY     78  65  63 SE16      29.81F
WAHPETON ARPT  SUNNY     77  63  61 SE13      29.84F
$$

 *****  WEATHER ACROSS CENTRAL AND WESTERN NORTH DAKOTA  *****

CITY           SKY/WX    TMP DP  RH WIND       PRES   REMARKS
JAMESTOWN      SUNNY     79  65  62 S16       29.76F
BISMARCK       PTSUNNY   82  59  45 SE10      29.70F
MINOT          PTSUNNY   87  58  37 SE8       29.63F
MINOT AFB      PTSUNNY   90  59  35 SE13      29.62F
GARRISON         N/A     82  58  43 S7        29.68F
WILLISTON      PTSUNNY   86  51  29 N18G28    29.63F HAZE
DICKINSON      PTSUNNY   88  44  21 SW9G18    29.69F
HETTINGER      PTSUNNY   86  48  26 S8        29.75F
$$

 *****  OTHER OBSERVATIONS NORTHEAST NORTH DAKOTA  *****

CITY           SKY/WX    TMP DP  RH WIND       PRES   REMARKS
WALHALLA       FAIR      77  75  94 MISG      29.69F
LANGDON        FAIR      90  63  40 S15G22    29.72S HX  90
CAVALIER       FAIR      75  68  78 S10       29.71F
GRAFTON        FAIR      75  68  78 S15       29.74F
CANDO          FAIR      82  64  54 S14       29.70F
FORT TOTTEN      N/A     81  66  60 S12       29.95
ROLLA            N/A     82  63  51 SE12      29.70F
RUGBY          FAIR      86  61  42 S12G21    29.66F
 ***** THE ABOVE OBSERVATIONS ARE NON NWS ARE NOT QUALITY
        CONTROLLED AND MAY MIS-REPORT RAIN FOR SNOW...
$$

 *****  OTHER OBSERVATIONS SOUTHEAST NORTH DAKOTA *****

CITY           SKY/WX    TMP DP  RH WIND       PRES   REMARKS
COOPERSTOWN    NOT AVBL
VALLEY CITY    FAIR      79  68  69 S16G22    29.78F
OAKES            N/A     77  72  83 S16G23    29.81F
GWINNER        FAIR      81  66  61 S15       29.82F
SHEYENNE NWR     N/A     79  68  69 S9        29.95S
BUFFALO        NOT AVBL
WYNDMERE         N/A     79  66  65 S9          N/A
 ***** THE ABOVE OBSERVATIONS ARE NON NWS ARE NOT QUALITY
       CONTROLLED AND MAY MIS-REPORT RAIN FOR SNOW...
$$

  *****  WEATHER ACROSS NORTHERN MINNESOTA  *****

CITY           SKY/WX    TMP DP  RH WIND       PRES   REMARKS
FLAG ISLAND    PTSUNNY   70  64  83 S10       29.79S
WARROAD        MOSUNNY   79  72  78 SW6       29.80S
ROSEAU         MOSUNNY   79  70  73 S9        29.78F
HALLOCK        SUNNY     79  70  73 S17       29.73F
THF RVR FALLS  MOSUNNY  N/A N/A N/A S15       29.78F
HALSTAD        NOT AVBL
FOSSTON        MOSUNNY   79  63  57 S15       29.84S
BAUDETTE       PTSUNNY   75  67  76 S8        29.81F
WASKISH        PTSUNNY   79  68  69 S3        29.84F
CROOKSTON      MOSUNNY   79  66  65 S18       29.78F
$$
  *****  WEATHER ACROSS CENTRAL AND WEST MINNESOTA  *****

CITY           SKY/WX    TMP DP  RH WIND       PRES   REMARKS
BEMIDJI        MOSUNNY   76  66  71 S8        29.86F
PARK RAPIDS    SUNNY     76  64  66 S12       29.90S
WADENA         SUNNY     75  64  69 S10       29.90S
DETROIT LAKES  SUNNY     77  64  65 S12       29.88S
MOORHEAD       SUNNY     77  64  65 S17       29.82F
FERGUS FALLS   SUNNY     75  64  69 S15       29.86F
ELBOW LAKE     FAIR      73  66  76 S16       29.89S
MORRIS MN      SUNNY     75  66  73 S14       29.89F
STAPLES        SUNNY     73  63  68 S10       29.91F
WHEATON        SUNNY     75  64  69 SE14      29.87F
$$
  *****  WEATHER ELSEWHERE ACROSS MINNESOTA  *****

CITY           SKY/WX    TMP DP  RH WIND       PRES   REMARKS
DULUTH         SUNNY     74  63  68 SW10      29.93S
INTRNTL FALLS  MOSUNNY   75  67  76 VRB5      29.85S
ELY            SUNNY     73  64  73 SW6       29.89F
CLOQUET        SUNNY     73  61  64 SW9       29.94S
BRAINERD       MOSUNNY   70  62  76 S8        29.94S
HIBBING        SUNNY     74  65  73 S6        29.91F
ALEXANDRIA     SUNNY     73  64  73 S13       29.94S
SAINT CLOUD    SUNNY     71  62  73 S10       29.96S
MINNEAPOLIS    MOSUNNY   72  61  68 S10       30.00F
$$

  *****  WEATHER ACROSS SOUTH DAKOTA  *****

CITY           SKY/WX    TMP DP  RH WIND       PRES   REMARKS
SIOUX FALLS    SUNNY     69  63  81 S13       29.98F
BROOKINGS      SUNNY     72  64  78 S14       29.96F
WATERTOWN      SUNNY     75  64  68 S14       29.91F
HURON          MOSUNNY   75  64  68 S15       29.88F
SISSETON         N/A     83  64  52 SW10      29.84S
ABERDEEN       SUNNY     76  65  68 S15G24    29.84S
MITCHELL       MOSUNNY   77  67  71 SE14      29.92S
PIERRE         SUNNY     92  51  24 S23G30    29.77F
MOBRIDGE       SUNNY     83  60  45 S14       29.74F
RAPID CITY     MOSUNNY   84  56  38 S12       29.82S
$$

  *****  SOME WEATHER IN NEARBY STATES *****

CITY           SKY/WX    TMP DP  RH WIND       PRES   REMARKS
GLASGOW MT     PTSUNNY   71  49  45 NW14G24   29.83R
GREAT FALLS MT CLOUDY    70  51  51 SW15      29.83S HAZE
CHEYENNE WY    SUNNY     86  35  16 W14G26    30.14S
SCOTTSBLUFF NE MOSUNNY   80  48  32 SE7       29.98S
OMAHA NE       CLOUDY    69  64  84 S7        30.07S
DES MOINES IA  CLOUDY    71  65  81 SE7       30.08S
DAVENPORT IA   PTSUNNY   74  63  68 CALM      30.10F
CHICAGO IL     CLOUDY    71  64  78 NE6       30.08S
EAU CLAIRE WI  MOSUNNY   72  62  71 SW12      30.03F
LA CROSSE WI   CLOUDY    70  63  78 SE8       30.06F
$$

  *****  SOME NATIONAL WEATHER *****

CITY           SKY/WX    TMP DP  RH WIND       PRES   REMARKS
LA GUARDIA NY  PTSUNNY   87  61  41 W6        30.07F
RALEIGH NC     PTSUNNY   85  60  42 CALM      30.16F
ATLANTA GA     CLOUDY    70  64  83 E15       30.14F
NEW ORLEANS LA MOSUNNY   87  67  51 NE7       30.07S HX  90
OKLAHOMA CITY  MOSUNNY   84  66  54 VRB3      30.04R
ALBUQUERQUE NM MOSUNNY   78  50  37 W5        30.26S
SALT LAKE CITY PTSUNNY   79  47  32 N8        30.00R
LOS ANGELES CA MOSUNNY   78  67  68 VRB3      29.91S
BOISE ID       SUNNY     72  41  32 W7        30.01R
SEATTLE WA     PTSUNNY   60  57  89 S10       29.90R
$$

*** WEATHER ACROSS MANITOBA...SASKATCHEWAN AND ONTARIO ***
                ***ONTARIO***

CITY           SKY/WX    TMP DP  RH WIND       PRES   REMARKS
GERALDTON      CLOUDY    72  64  78 W3        29.80R FOG
THUNDER BAY    PTSUNNY   73  63  68 E7        29.83F
SIOUX LOOKOUT  CLOUDY    75  66  73 S7        29.81S
TORONTO        PTSUNNY   77  63  61 SE6       30.07F
BIG TROUT LK   PTSUNNY   68  59  73 N9G18     29.72R
PICKLE LAKE    PTSUNNY   75  63  64 W13G21    29.74R
DRYDEN         SUNNY     73  64  73 S10       29.82S
KENORA         PTSUNNY   72  68  88 S8        29.81F
$$
                *** MANITOBA***

CITY           SKY/WX    TMP DP  RH WIND       PRES   REMARKS
BRANDON        PTSUNNY   81  70  69 SE10      29.64F
DAUPHIN        SUNNY     72  61  68 SE15G21   29.64R
ISLAND LAKE    CLOUDY    63  57  82 N7        29.80R
PILOT MOUND      N/A     86  64  48 S13         N/A
THE PAS        CLOUDY    64  61  88 E10G17    29.66R
THOMPSON       CLOUDY    54  46  76 E8        29.79F
WINNIPEG       MOSUNNY   79  70  73 SE16      29.70F
LYNN LAKE      CLOUDY    52  48  87 MISG      29.73R
CHURCHILL      PTSUNNY   52  45  76 E13       29.93R
GILLAM         DRIZZLE   52  50  93 NE7       29.86  FOG
$$
                ***SASKATCHEWAN***

CITY           SKY/WX    TMP DP  RH WIND       PRES   REMARKS
ESTEVAN        PTSUNNY   82  57  42 W10       29.64R SMOKE
KINDERSLEY     PTSUNNY   73  41  31 SW24G31   29.62F
LLOYDMINSTER   PTSUNNY   66  50  55 VRB2      29.52S
PRINCE ALBERT  CLOUDY    68  57  68 SW8       29.56R
REGINA         LGT RAIN  66  55  68 W7        29.70R SMOKE


USA.gov is the U.S. government's official web portal to all federal, state and local government web resources and services.